When you browse on this site, cookies collect data to enhance your experience and personalize the content and advertising you see.
Visit our Privacy Policy to learn more. By continuing to use the site, you agree to this use of cookies and data.
  • In Schweiz
  • Länderverzeichnis
  • Für 7 Tage
  • Wassertemperatur
  • Satellitenkarten
  • Wetterkarte
  • Widgets
  • user-avatar
    Anmelden

    Stündliche Wetter Malanje

    Heute, 23 März, Samstag

    Zeit Temperatur Niederschläge Wind Luftdruck Luftfeuchtigkeit
    00:00 +23°C° 1.3 mm 1 m/S 664 mmHg 83%
    01:00 +20°C° 1.3 mm 0 m/S 664 mmHg 87%
    02:00 +22°C° 1.2 mm 1 m/S 663 mmHg 90%
    03:00 +21°C° 1.2 mm 1 m/S 663 mmHg 93%
    04:00 +21°C° 1.2 mm 1 m/S 663 mmHg 96%
    05:00 +21°C° 0.2 mm 1 m/S 664 mmHg 96%
    06:00 +21°C° 0.2 mm 1 m/S 664 mmHg 96%
    07:00 +21°C° 0.2 mm 1 m/S 664 mmHg 96%
    08:00 +23°C° 0.9 mm 1 m/S 665 mmHg 92%
    09:00 +25°C° 0.9 mm 1 m/S 665 mmHg 88%
    10:00 +26°C° 0.9 mm 1 m/S 666 mmHg 84%
    11:00 +27°C° 0.6 mm 1 m/S 666 mmHg 75%
    12:00 +29°C° 0.6 mm 1 m/S 665 mmHg 67%
    13:00 +30°C° 0.6 mm 1 m/S 665 mmHg 58%
    14:00 +30°C° 0 mm 1 m/S 665 mmHg 60%
    15:00 +30°C° 0 mm 1 m/S 664 mmHg 61%
    16:00 +30°C° 0 mm 1 m/S 664 mmHg 63%
    17:00 +28°C° 0.5 mm 1 m/S 664 mmHg 70%
    18:00 +26°C° 0.5 mm 2 m/S 664 mmHg 76%
    19:00 +24°C° 0.5 mm 2 m/S 663 mmHg 83%
    20:00 +23°C° 1 mm 2 m/S 664 mmHg 86%
    21:00 +23°C° 1 mm 2 m/S 664 mmHg 90%
    22:00 +21°C° 1 mm 2 m/S 665 mmHg 93%
    23:00 +21°C° 0.3 mm 2 m/S 665 mmHg 94%

    Morgen, 24 März, Sonntag

    Zeit Temperatur Niederschläge Wind Luftdruck Luftfeuchtigkeit
    00:00 +20°C° 0.3 mm 2 m/S 664 mmHg 95%
    01:00 +20°C° 0.3 mm 2 m/S 664 mmHg 96%
    02:00 +20°C° 0 mm 2 m/S 664 mmHg 97%
    03:00 +20°C° 0 mm 2 m/S 664 mmHg 97%
    04:00 +19°C° 0 mm 2 m/S 664 mmHg 98%
    05:00 +20°C° 0 mm 2 m/S 664 mmHg 98%
    06:00 +20°C° 0 mm 2 m/S 665 mmHg 97%
    07:00 +20°C° 0 mm 2 m/S 665 mmHg 96%
    08:00 +21°C° 0 mm 2 m/S 666 mmHg 91%
    09:00 +24°C° 0 mm 2 m/S 666 mmHg 85%
    10:00 +25°C° 0 mm 2 m/S 667 mmHg 80%
    11:00 +26°C° 0 mm 2 m/S 666 mmHg 76%
    12:00 +27°C° 0 mm 2 m/S 665 mmHg 71%
    13:00 +28°C° 0 mm 2 m/S 665 mmHg 67%
    14:00 +27°C° 0.9 mm 2 m/S 664 mmHg 73%
    15:00 +27°C° 0.9 mm 2 m/S 663 mmHg 79%
    16:00 +26°C° 0.9 mm 2 m/S 663 mmHg 85%
    17:00 +24°C° 0.7 mm 1 m/S 663 mmHg 88%
    18:00 +23°C° 0.7 mm 1 m/S 663 mmHg 90%
    19:00 +22°C° 0.7 mm 1 m/S 664 mmHg 93%
    20:00 +21°C° 0.2 mm 1 m/S 664 mmHg 94%
    21:00 +21°C° 0.2 mm 1 m/S 665 mmHg 96%
    22:00 +21°C° 0.2 mm 1 m/S 666 mmHg 97%
    23:00 +21°C° 0.5 mm 1 m/S 665 mmHg 97%

    übermorgen, 25 März, Montag

    Zeit Temperatur Niederschläge Wind Luftdruck Luftfeuchtigkeit
    00:00 +19°C° 0.5 mm 0 m/S 665 mmHg 97%
    01:00 +19°C° 0.5 mm 0 m/S 665 mmHg 98%
    02:00 +19°C° 0.1 mm 0 m/S 664 mmHg 98%
    03:00 +21°C° 0.1 mm 1 m/S 664 mmHg 98%
    04:00 +21°C° 0.1 mm 1 m/S 663 mmHg 99%
    05:00 +21°C° 0.1 mm 1 m/S 664 mmHg 98%
    06:00 +21°C° 0.1 mm 1 m/S 664 mmHg 98%
    07:00 +21°C° 0.1 mm 1 m/S 665 mmHg 98%
    08:00 +23°C° 0.5 mm 2 m/S 666 mmHg 94%
    09:00 +24°C° 0.5 mm 2 m/S 666 mmHg 90%
    10:00 +25°C° 0.5 mm 2 m/S 667 mmHg 86%
    11:00 +26°C° 0.7 mm 2 m/S 666 mmHg 82%
    12:00 +27°C° 0.7 mm 1 m/S 665 mmHg 78%
    13:00 +27°C° 0.7 mm 1 m/S 665 mmHg 74%
    14:00 +27°C° 0.7 mm 1 m/S 664 mmHg 78%
    15:00 +26°C° 0.7 mm 1 m/S 664 mmHg 81%
    16:00 +26°C° 0.7 mm 1 m/S 663 mmHg 84%
    17:00 +24°C° 0.6 mm 1 m/S 664 mmHg 87%
    18:00 +23°C° 0.6 mm 1 m/S 664 mmHg 89%
    19:00 +21°C° 0.6 mm 1 m/S 664 mmHg 92%
    20:00 +21°C° 0.1 mm 1 m/S 664 mmHg 93%
    21:00 +21°C° 0.1 mm 1 m/S 665 mmHg 94%
    22:00 +21°C° 0.1 mm 1 m/S 665 mmHg 95%
    23:00 +20°C° 0 mm 1 m/S 665 mmHg 96%

    26 März, Dienstag

    Zeit Temperatur Niederschläge Wind Luftdruck Luftfeuchtigkeit
    00:00 +20°C° 0 mm 1 m/S 665 mmHg 96%
    01:00 +20°C° 0 mm 1 m/S 664 mmHg 97%
    02:00 +20°C° 0 mm 1 m/S 664 mmHg 97%
    03:00 +19°C° 0 mm 1 m/S 664 mmHg 97%
    04:00 +19°C° 0 mm 1 m/S 663 mmHg 97%
    05:00 +18°C° 0 mm 0 m/S 664 mmHg 96%
    06:00 +18°C° 0 mm 0 m/S 665 mmHg 95%
    07:00 +19°C° 0 mm 0 m/S 665 mmHg 94%
    08:00 +21°C° 0 mm 0 m/S 666 mmHg 84%
    09:00 +24°C° 0 mm 0 m/S 667 mmHg 74%
    10:00 +28°C° 0 mm 1 m/S 668 mmHg 64%
    11:00 +29°C° 0 mm 1 m/S 667 mmHg 61%
    12:00 +29°C° 0 mm 1 m/S 666 mmHg 58%
    13:00 +30°C° 0 mm 2 m/S 666 mmHg 54%
    14:00 +29°C° 0.5 mm 2 m/S 665 mmHg 60%
    15:00 +29°C° 0.5 mm 2 m/S 665 mmHg 66%
    16:00 +28°C° 0.5 mm 2 m/S 664 mmHg 72%
    17:00 +26°C° 0.3 mm 1 m/S 665 mmHg 77%
    18:00 +24°C° 0.3 mm 1 m/S 665 mmHg 83%
    19:00 +22°C° 0.3 mm 1 m/S 665 mmHg 88%
    20:00 +22°C° 0.1 mm 1 m/S 665 mmHg 90%
    21:00 +21°C° 0.1 mm 1 m/S 666 mmHg 92%
    22:00 +21°C° 0.1 mm 1 m/S 666 mmHg 94%
    23:00 +20°C° 0 mm 1 m/S 665 mmHg 95%

    27 März, Mittwoch

    Zeit Temperatur Niederschläge Wind Luftdruck Luftfeuchtigkeit
    00:00 +20°C° 0 mm 1 m/S 665 mmHg 96%
    01:00 +18°C° 0 mm 0 m/S 665 mmHg 98%
    02:00 +18°C° 0 mm 0 m/S 665 mmHg 98%
    03:00 +17°C° 0 mm 0 m/S 665 mmHg 98%
    04:00 +17°C° 0 mm 0 m/S 664 mmHg 98%
    05:00 +18°C° 0 mm 0 m/S 665 mmHg 97%
    06:00 +18°C° 0 mm 0 m/S 666 mmHg 96%
    07:00 +19°C° 0 mm 0 m/S 666 mmHg 94%
    08:00 +21°C° 0 mm 0 m/S 667 mmHg 85%
    09:00 +24°C° 0 mm 0 m/S 668 mmHg 75%
    10:00 +29°C° 0 mm 1 m/S 668 mmHg 66%
    11:00 +28°C° 0 mm 0 m/S 668 mmHg 61%
    12:00 +30°C° 0 mm 0 m/S 667 mmHg 55%
    13:00 +31°C° 0 mm 0 m/S 667 mmHg 50%
    14:00 +31°C° 0 mm 0 m/S 666 mmHg 50%
    15:00 +30°C° 0 mm 0 m/S 666 mmHg 51%
    16:00 +29°C° 0 mm 0 m/S 665 mmHg 51%
    17:00 +27°C° 0 mm 0 m/S 665 mmHg 57%
    18:00 +25°C° 0 mm 0 m/S 665 mmHg 62%
    19:00 +23°C° 0 mm 0 m/S 665 mmHg 67%
    20:00 +22°C° 0 mm 0 m/S 666 mmHg 69%
    21:00 +22°C° 0 mm 0 m/S 666 mmHg 71%
    22:00 +21°C° 0 mm 0 m/S 666 mmHg 73%
    23:00 +20°C° 0.4 mm 0 m/S 666 mmHg 78%

    28 März, Donnerstag

    Zeit Temperatur Niederschläge Wind Luftdruck Luftfeuchtigkeit
    00:00 +20°C° 0.4 mm 0 m/S 666 mmHg 82%
    01:00 +21°C° 0.4 mm 1 m/S 666 mmHg 87%
    02:00 +21°C° 1 mm 1 m/S 666 mmHg 89%
    03:00 +21°C° 1 mm 1 m/S 665 mmHg 92%
    04:00 +20°C° 1 mm 1 m/S 665 mmHg 94%
    05:00 +21°C° 0 mm 1 m/S 666 mmHg 94%
    06:00 +21°C° 0 mm 1 m/S 666 mmHg 94%
    07:00 +21°C° 0 mm 1 m/S 666 mmHg 94%
    08:00 +22°C° 0 mm 1 m/S 666 mmHg 90%
    09:00 +24°C° 0 mm 1 m/S 667 mmHg 87%
    10:00 +25°C° 0 mm 1 m/S 667 mmHg 83%
    11:00 +26°C° 0 mm 2 m/S 666 mmHg 78%
    12:00 +27°C° 0 mm 2 m/S 666 mmHg 73%
    13:00 +28°C° 0 mm 2 m/S 665 mmHg 68%
    14:00 +28°C° 0 mm 2 m/S 665 mmHg 68%
    15:00 +28°C° 0 mm 1 m/S 665 mmHg 67%
    16:00 +28°C° 0 mm 1 m/S 665 mmHg 66%
    17:00 +27°C° 0 mm 1 m/S 665 mmHg 71%
    18:00 +25°C° 0 mm 1 m/S 665 mmHg 76%
    19:00 +23°C° 0 mm 1 m/S 665 mmHg 82%
    20:00 +23°C° 0.8 mm 1 m/S 665 mmHg 84%
    21:00 +20°C° 0.8 mm 0 m/S 665 mmHg 86%
    22:00 +19°C° 0.8 mm 0 m/S 665 mmHg 88%
    23:00 +19°C° 0.1 mm 0 m/S 665 mmHg 88%
    Mehr zeigen